Location: Erp
(42.9417°N, 1.2009°E)
Time: 03:45:31
(UTC+00:00)

Resurs 01 Rocket - Visible Passes

Search period start: 21 April 2026 00:00
Search period end: 01 May 2026 00:00
Orbit: 625 x 637 km, 97.7° (Epoch: 20 April)

Date Brightness Start Highest point End Pass type
(mag) Time Alt. Az. Time Alt. Az. Time Alt. Az.
21 Apr 2.9 19:15:59 10° S 19:20:07 42° W 19:24:18 10° NNW visible
22 Apr 3.9 19:37:15 10° SSW 19:40:54 26° W 19:44:34 10° NW visible
23 Apr 4.4 19:59:04 10° SW 20:01:44 16° W 20:04:26 10° NW visible
26 Apr 3.3 19:23:08 10° SSW 19:27:08 35° W 19:31:10 10° NNW visible
27 Apr 4.1 19:44:34 10° SW 19:47:56 22° W 19:51:19 10° NW visible
28 Apr 4.5 20:06:43 10° WSW 20:08:47 13° W 20:10:53 10° WNW visible
